AirNav   Air Wisconsin pilot careers
 
 1258 users online  

KJQD Ohio County Airport
Hartford, Kentucky, USA

GOING TO HARTFORD?


FAA INFORMATION EFFECTIVE 16 AUGUST 2018

Location

FAA Identifier: JQD
Lat/Long: 37-27-30.8000N / 086-50-59.4000W
37-27.513333N / 086-50.990000W
37.4585556 / -86.8498333
(estimated)
Elevation: 536.8 ft. / 163.6 m (surveyed)
Variation: 02W (2000)
From city: 3 miles NE of HARTFORD, KY
Time zone: UTC -5 (UTC -6 during Standard Time)
Zip code: 42320

Airport Operations

Airport use: Open to the public
Activation date: 06/1984
Control tower: no
ARTCC: INDIANAPOLIS CENTER
FSS: LOUISVILLE FLIGHT SERVICE STATION
NOTAMs facility: LOU (NOTAM-D service available)
Attendance: 0645-1500
FOR AFT HRS SVC CALL 270-256-2303.
Wind indicator: lighted
Segmented circle: yes
Lights: ACTVT MIRL RY 03/21; PAPI RYS 03 & 21 DUSK-DAWN - CTAF.
Beacon: white-green (lighted land airport)
Operates sunset to sunrise.

Airport Communications

CTAF/UNICOM: 122.8
WX AWOS-3PT: 132.1 (270-298-7936)
EVANSVILLE APPROACH: 124.025
EVANSVILLE DEPARTURE: 124.025
  • APCH/DEP SVC PRVDD BY INDIANAPOLIS ARTCC 0N FREQS 128.3/284.65 (EVANSVILLE RCAG) WHEN EVANSVILLE APCH CTL CLSD.

Nearby radio navigation aids

VOR radial/distance  VOR name  Freq  Var
CCTr078/20.2CENTRAL CITY VORTAC109.8001W
OWBr143/22.8OWENSBORO VOR/DME108.6004W
BWGr327/37.3BOWLING GREEN VORTAC117.9002E
MYSr229/(38.8)MYSTIC VOR108.2001W

Airport Services

Fuel available: 100LL JET-A+
Parking: hangars and tiedowns
Airframe service: MAJOR
Powerplant service: MAJOR
Bulk oxygen: HIGH/LOW

Runway Information

Runway 3/21

Dimensions: 5000 x 75 ft. / 1524 x 23 m
Surface: asphalt, in good condition
Weight bearing capacity: 
Single wheel: 20.0
Double wheel: 50.0
Runway edge lights: medium intensity
Runway edge markings: RWY 3/21 MARKINGS FADED
RUNWAY 3  RUNWAY 21
Latitude: 37-27.138757N37-27.887438N
Longitude: 086-51.205115W086-50.773385W
Elevation: 530.3 ft.536.8 ft.
Traffic pattern: leftleft
Runway heading: 027 magnetic, 025 true207 magnetic, 205 true
Markings: nonprecision, in poor conditionnonprecision, in poor condition
Visual slope indicator: 2-light PAPI on left (3.00 degrees glide path)2-light PAPI on left (3.50 degrees glide path)
Runway end identifier lights: yesyes
Touchdown point: yes, no lightsyes, no lights
Obstructions: 11 ft. trees, 586 ft. from runway, 25 ft. left of centerline, 35:1 slope to clear71 ft. trees, 1305 ft. from runway, 413 ft. right of centerline, 15:1 slope to clear

Airport Ownership and Management from official FAA records

Ownership: Publicly-owned
Owner: OHIO COUNTY AIRPORT BOARD
2260 COUNTRY CLUB RD
HARTFORD, KY 42347
Phone 270-298-3500
Manager: CHARLES BULLINGTON
2260 COUNTRY CLUB RD
HARTFORD, KY 42347
Phone 270-298-3500
ADDTL PHONE 270-925-0358

Airport Operational Statistics

Aircraft based on the field: 10
Single engine airplanes: 10
    
Aircraft operations: avg 22/day *
56% transient general aviation
38% local general aviation
4% air taxi
2% military
* for 12-month period ending 21 November 2016

Instrument Procedures

NOTE: All procedures below are presented as PDF files. If you need a reader for these files, you should download the free Adobe Reader.

NOT FOR NAVIGATION. Please procure official charts for flight.
FAA instrument procedures published for use from 16 August 2018 at 0901Z to 13 September 2018 at 0900Z.

 
IAPs - Instrument Approach Procedures
RNAV (GPS) RWY 03   download (209KB)
RNAV (GPS) RWY 21   download (231KB)
VOR/DME-A   download (152KB)
NOTE: Special Alternate Minimums apply   download (27KB)
NOTE: Special Take-Off Minimums/Departure Procedures apply   download (126KB)

Other nearby airports with instrument procedures:

M21 - Muhlenberg County Airport (20 nm SW)
KOWB - Owensboro-Daviess County Regional Airport (23 nm NW)
2I0 - Madisonville Regional Airport (27 nm W)
KY8 - Hancock County Airport-Ron Lewis Field (30 nm N)
KTEL - Perry County Municipal Airport (34 nm N)
 
Loc | Ops | Rwys | IFR | FBO | Links
Com | Nav | Svcs | Stats | Notes


 
Area around KJQD (Ohio County Airport)
 
Road maps at: MapQuest Bing Google
 
Aerial photo
WARNING: Photo may not be current or correct
Aerial photo of KJQD (Ohio County Airport)
Do you have a better or more recent aerial photo of Ohio County Airport that you would like to share? If so, please send us your photo.

 
Sectional chart

 
Airport distance calculator
Flying to Ohio County Airport? Find the distance to fly.

From to KJQD

Sunrise and sunset
Times for 20-Aug-2018
 Local
(UTC-5)
 Zulu
(UTC)
Morning civil twilight05:4110:41
Sunrise06:0911:09
Sunset19:3300:33
Evening civil twilight20:0001:00

Current date and time
Zulu (UTC)  20-Aug-2018 22:12:15
Local (UTC-5)  20-Aug-2018 17:12:15
 
METAR
KM21 
20nm SW 
202155Z AUTO 17009KT 10SM SCT033 SCT049 29/21 A2983 RMK AO2 T02850212
KOWB 
22nm NW 
202156Z 21015G20KT 10SM FEW034 BKN046 BKN055 29/23 A2983 RMK AO2 SLP104 T02940228
K2I0 
27nm W 
202155Z AUTO 20009KT 10SM SCT031 30/23 A2984 RMK AO2 T02960225
KKY8 
30nm N 
202155Z AUTO 18008G15KT 10SM FEW034 FEW042 29/25 A2983 RMK A01
KBWG 
36nm SE 
202153Z AUTO 18016G21KT 10SM SCT032 29/23 A2987 RMK AO2 SLP108 T02940228
TAF
KOWB 
22nm NW 
201948Z 2020/2118 20012KT P6SM BKN035 FM210300 18009KT P6SM VCTS BKN035CB OVC150 FM210700 21009KT P6SM SCT035 BKN060
NOTAMs
Click for the latest NOTAMs
NOTAMs are issued by the DoD/FAA and will open in a separate window not controlled by AirNav.

 

 
 

FBO, Fuel Providers, and Aircraft Ground Support

  
 Business Name 
 
 Contact 
 
 Services / Description 
 
Fuel Prices
 
Comments
  
Leading Edge Aircraft Services, LLC 270-298-3500
no information available

If you are affiliated with Leading Edge Aircraft Services, LLC and would like to show here your services, contact info, web link, logo, and more, click here
100LL
SS $4.30 
 Updated 06-Aug-2018
 
   write
SS=Self service
Update Fuel Prices
 

Would you like to see your business listed on this page?

 If your business provides an interesting product or service to pilots, flight crews, aircraft, or users of the Ohio County Airport, you should consider listing it here.  To start the listing process, click on the button below
 
Add a business
 

Other Pages about Ohio County Airport

Update a link
 
Copyright © AirNav, LLC. All rights reserved. Privacy Policy  Contact